User: anonymous   Login
Location: *
(13.2257°S, 48.7193°W)
Time: 06:10:19
(UTC+00:00)
Language:

SL-16 R/B - Orbit

View from above orbital plane
View from above orbital plane
View from above satellite
View from above satellite

Ground track
Ground track

The orbit is defined by the following mean orbital elements,

1 27006U          26106.68949623 +.00000000 +00000-0 +56246-5 0 00008
2 27006  99.7740 273.2063 0013798 248.4483 122.4012 13.71093426    05
Epoch (UTC): 16 April 2026 16:32:52
Eccentricity: 0.0013798
inclination: 99.7740°
perigee height: 985 km
apogee height: 1006 km
right ascension of ascending node: 273.2063°
argument of perigee: 248.4483°
revolutions per day: 13.71093426
mean anomaly at epoch: 122.4012°

The dashed part of the orbit path shows where the satellite is in the earth's shadow,  

DLR